Weather History for Cape Cod CGAS, MA

Change the Weather History Date:

Monday, December 31, 2012

  Actual Average Record
Temperature  
Mean Temperature 29 °F -  
Max Temperature 39 °F 38 °F 53 °F (2011)
Min Temperature 19 °F 23 °F 6 °F (2008)
Degree Days  
Heating Degree Days 36    
Moisture  
Dew Point 21 °F    
Average Humidity 74    
Maximum Humidity 86    
Minimum Humidity 42    
Precipitation  
Precipitation 0.00 in - - ()
Sea Level Pressure  
Sea Level Pressure 29.96 in    
Wind  
Wind Speed 13 mph (West)    
Max Wind Speed 21 mph    
Max Gust Speed 30 mph    
Visibility 10 miles    
Events      
Averages and records for this station are not official NWS values.
T = Trace of Precipitation, MM = Missing Value Source: NWS Daily Summary

Daily Weather History Graph

Daily Weather History Graph

Search for Another Location

Airport:

Trip Planner

Search our weather history database for the weather conditions in past years. The results will help you decide how hot, cold, wet, or windy it might be!

Date:

Astronomy

Dec. 31, 2012 Rise Set
Actual Time 7:09 AM EST 4:21 PM EST
Civil Twilight 6:37 AM EST 4:53 PM EST
Nautical Twilight 6:02 AM EST 5:28 PM EST
Astronomical Twilight 5:28 AM EST 6:01 PM EST
Moon 7:52 PM EST (12/31) 8:46 AM EST (12/31)
Length of Visible Light 10h 15m
Length of Day
9h 12m
Waning Gibbous, 90% of the Moon is Illuminated
Dec 31
Waning Gibbous
Jan 4
Last Quarter
Jan 11
New
Jan 18
First Quarter
Jan 26
Full

Hourly Weather History & Observations

Time (EST) Temp. Windchill Dew Point Humidity Pressure Visibility Wind Dir Wind Speed Gust Speed Precip Events Conditions
12:15 AM 21.2 °F 5.6 °F 12.2 °F 68% 29.96 in 10.0 mi WNW 20.7 mph 29.9 mph N/A   Clear
12:35 AM 21.2 °F 8.9 °F 12.2 °F 68% 29.97 in 10.0 mi NW 12.7 mph 21.9 mph N/A   Clear
12:55 AM 19.4 °F 6.6 °F 12.2 °F 74% 29.98 in 10.0 mi NW 12.7 mph 19.6 mph N/A   Clear
1:15 AM 19.4 °F 6.0 °F 12.2 °F 74% 29.98 in 10.0 mi NW 13.8 mph 21.9 mph N/A   Clear
1:35 AM 19.4 °F 7.9 °F 12.2 °F 74% 30.00 in 10.0 mi WNW 10.4 mph - N/A   Clear
1:55 AM 19.4 °F 6.0 °F 12.2 °F 74% 30.00 in 10.0 mi WNW 13.8 mph - N/A   Clear
2:15 AM 19.4 °F 9.5 °F 12.2 °F 74% 30.01 in 10.0 mi WNW 8.1 mph - N/A   Clear
2:35 AM 19.4 °F 7.9 °F 12.2 °F 74% 30.02 in 10.0 mi WNW 10.4 mph - N/A   Clear
2:55 AM 19.4 °F 7.9 °F 12.2 °F 74% 30.02 in 10.0 mi West 10.4 mph - N/A   Clear
3:15 AM 19.4 °F 6.6 °F 14.0 °F 80% 30.03 in 10.0 mi West 12.7 mph - N/A   Clear
3:35 AM 19.4 °F 5.5 °F 12.2 °F 74% 30.03 in 10.0 mi West 15.0 mph 23.0 mph N/A   Clear
3:55 AM 21.2 °F 7.8 °F 14.0 °F 74% 30.04 in 10.0 mi West 15.0 mph 20.7 mph N/A   Clear
4:15 AM 21.2 °F 8.3 °F 14.0 °F 74% 30.04 in 10.0 mi WNW 13.8 mph 18.4 mph N/A   Clear
4:35 AM 21.2 °F 7.3 °F 14.0 °F 74% 30.04 in 10.0 mi WNW 16.1 mph 21.9 mph N/A   Clear
4:55 AM 21.2 °F 8.3 °F 14.0 °F 74% 30.03 in 10.0 mi WNW 13.8 mph 20.7 mph N/A   Clear
5:15 AM 23.0 °F 10.6 °F 14.0 °F 68% 30.03 in 10.0 mi WNW 13.8 mph - N/A   Clear
5:35 AM 23.0 °F 11.7 °F 15.8 °F 74% 30.05 in 10.0 mi West 11.5 mph - N/A   Clear
5:55 AM 23.0 °F 10.6 °F 15.8 °F 74% 30.05 in 10.0 mi West 13.8 mph 17.3 mph N/A   Clear
6:15 AM 23.0 °F 10.1 °F 15.8 °F 74% 30.06 in 10.0 mi West 15.0 mph 20.7 mph N/A   Clear
6:35 AM 23.0 °F 10.6 °F 15.8 °F 74% 30.07 in 10.0 mi West 13.8 mph 19.6 mph N/A   Clear
6:55 AM 24.8 °F 11.9 °F 15.8 °F 69% 30.07 in 10.0 mi West 16.1 mph 25.3 mph N/A   Clear
7:15 AM 24.8 °F 12.9 °F 17.6 °F 74% 30.06 in 10.0 mi West 13.8 mph - N/A   Clear
7:35 AM 24.8 °F 12.9 °F 17.6 °F 74% 30.05 in 10.0 mi West 13.8 mph 20.7 mph N/A   Clear
7:55 AM 24.8 °F 11.9 °F 17.6 °F 74% 30.06 in 10.0 mi West 16.1 mph 19.6 mph N/A   Clear
8:15 AM 26.6 °F 14.7 °F 19.4 °F 74% 30.06 in 10.0 mi West 15.0 mph 19.6 mph N/A   Clear
8:35 AM 26.6 °F 14.7 °F 19.4 °F 74% 30.07 in 10.0 mi West 15.0 mph 20.7 mph N/A   Clear
8:55 AM 26.6 °F 13.8 °F 19.4 °F 74% 30.07 in 10.0 mi West 17.3 mph 23.0 mph N/A   Clear
9:15 AM 28.4 °F 16.6 °F 19.4 °F 69% 30.06 in 10.0 mi West 16.1 mph 23.0 mph N/A   Unknown
9:35 AM 28.4 °F 17.0 °F 21.2 °F 74% 30.05 in 10.0 mi West 15.0 mph - N/A   Unknown
9:55 AM 28.4 °F 16.6 °F 23.0 °F 80% 30.06 in 10.0 mi West 16.1 mph - N/A   Unknown
10:15 AM 28.4 °F 17.0 °F 23.0 °F 80% 30.06 in 10.0 mi West 15.0 mph 20.7 mph N/A   Unknown
10:35 AM 28.4 °F 18.0 °F 23.0 °F 80% 30.05 in 10.0 mi West 12.7 mph 21.9 mph N/A   Unknown
10:55 AM 28.4 °F 16.6 °F 23.0 °F 80% 30.04 in 10.0 mi West 16.1 mph 24.2 mph N/A   Unknown
11:15 AM 28.4 °F 17.0 °F 23.0 °F 80% 30.03 in 10.0 mi West 15.0 mph - N/A   Unknown
11:35 AM 30.2 °F 19.3 °F 23.0 °F 75% 30.02 in 10.0 mi West 15.0 mph - N/A   Unknown
11:55 AM 30.2 °F 19.3 °F 23.0 °F 75% 30.00 in 10.0 mi West 15.0 mph 18.4 mph N/A   Unknown
12:15 PM 30.2 °F 21.3 °F 24.8 °F 80% 29.99 in 10.0 mi West 10.4 mph - N/A   Unknown
12:35 PM 30.2 °F 20.2 °F 24.8 °F 80% 29.98 in 10.0 mi West 12.7 mph - N/A   Unknown
12:55 PM 32.0 °F 21.2 °F 24.8 °F 75% 29.97 in 10.0 mi West 16.1 mph - N/A   Unknown
1:15 PM 32.0 °F 21.6 °F 24.8 °F 75% 29.95 in 10.0 mi West 15.0 mph 18.4 mph N/A   Unknown
1:35 PM 32.0 °F 20.5 °F 23.0 °F 69% 29.94 in 10.0 mi West 18.4 mph 25.3 mph N/A   Unknown
1:55 PM 32.0 °F 22.1 °F 23.0 °F 69% 29.94 in 10.0 mi West 13.8 mph 21.9 mph N/A   Unknown
2:15 PM 32.0 °F 21.6 °F 24.8 °F 75% 29.94 in 10.0 mi West 15.0 mph 21.9 mph N/A   Unknown
2:35 PM 32.0 °F 23.6 °F 24.8 °F 75% 29.93 in 10.0 mi West 10.4 mph 20.7 mph N/A   Unknown
2:55 PM 32.0 °F 22.1 °F 24.8 °F 75% 29.94 in 10.0 mi West 13.8 mph 18.4 mph N/A   Unknown
3:15 PM 32.0 °F 23.0 °F 24.8 °F 75% 29.94 in 10.0 mi West 11.5 mph - N/A   Unknown
3:35 PM 32.0 °F 25.6 °F 24.8 °F 75% 29.93 in 10.0 mi WNW 6.9 mph - N/A   Clear
3:55 PM 30.2 °F 26.7 °F 23.0 °F 75% 29.93 in 10.0 mi West 3.5 mph - N/A   Clear
4:15 PM 28.4 °F - 23.0 °F 80% 29.93 in 10.0 mi Calm Calm - N/A   Clear
4:35 PM 26.6 °F - 23.0 °F 86% 29.93 in 10.0 mi Calm Calm - N/A   Clear
4:55 PM 26.6 °F 22.6 °F 23.0 °F 86% 29.92 in 10.0 mi WSW 3.5 mph - N/A   Clear
5:15 PM 28.4 °F 24.6 °F 21.2 °F 74% 29.91 in 10.0 mi WSW 3.5 mph - N/A   Clear
5:35 PM 26.6 °F 21.2 °F 21.2 °F 80% 29.91 in 10.0 mi WSW 4.6 mph - N/A   Clear
5:55 PM 28.4 °F 22.2 °F 23.0 °F 80% 29.90 in 10.0 mi SW 5.8 mph - N/A   Clear
6:15 PM 28.4 °F 22.2 °F 23.0 °F 80% 29.89 in 10.0 mi WSW 5.8 mph - N/A   Clear
6:35 PM 30.2 °F 22.6 °F 23.0 °F 75% 29.90 in 10.0 mi WSW 8.1 mph - N/A   Clear
6:55 PM 32.0 °F 23.0 °F 23.0 °F 69% 29.90 in 10.0 mi West 11.5 mph - N/A   Clear
7:15 PM 32.0 °F 23.6 °F 24.8 °F 75% 29.90 in 10.0 mi West 10.4 mph - N/A   Clear
7:35 PM 32.0 °F 22.5 °F 24.8 °F 75% 29.88 in 10.0 mi West 12.7 mph - N/A   Clear
7:55 PM 32.0 °F 23.0 °F 24.8 °F 75% 29.87 in 10.0 mi West 11.5 mph - N/A   Clear
8:15 PM 32.0 °F 24.2 °F 26.6 °F 80% 29.86 in 10.0 mi West 9.2 mph - N/A   Clear
8:35 PM 32.0 °F 23.6 °F 26.6 °F 80% 29.85 in 10.0 mi West 10.4 mph - N/A   Clear
8:55 PM 32.0 °F 26.4 °F 26.6 °F 80% 29.85 in 10.0 mi West 5.8 mph - N/A   Clear
9:15 PM 33.8 °F 25.8 °F 28.4 °F 81% 29.84 in 10.0 mi WSW 10.4 mph - N/A   Clear
9:35 PM 33.8 °F 25.8 °F 28.4 °F 81% 29.83 in 10.0 mi West 10.4 mph - N/A   Clear
9:55 PM 35.6 °F 27.1 °F 28.4 °F 75% 29.82 in 10.0 mi West 12.7 mph 19.6 mph N/A   Clear
10:15 PM 33.8 °F 24.3 °F 26.6 °F 75% 29.82 in 10.0 mi West 13.8 mph 19.6 mph N/A   Clear
10:35 PM 33.8 °F 24.8 °F 26.6 °F 75% 29.82 in 10.0 mi West 12.7 mph - N/A   Clear
10:55 PM 33.8 °F 24.8 °F 26.6 °F 75% 29.81 in 10.0 mi West 12.7 mph 18.4 mph N/A   Clear
11:15 PM 32.0 °F 23.0 °F 26.6 °F 80% 29.81 in 10.0 mi West 11.5 mph - N/A   Clear
11:35 PM 33.8 °F 25.3 °F 24.8 °F 70% 29.81 in 10.0 mi West 11.5 mph - N/A   Clear
11:55 PM 33.8 °F 25.3 °F 24.8 °F 70% 29.80 in 10.0 mi West 11.5 mph - N/A   Clear